Location: ????
(55.2778°N, 39.2433°E)
Time: 06:27:05
(UTC+00:00)

Cosmos 923 Rocket - Pass Details

Date: 14 April 2024
Orbit: 755 x 784 km, 74.0° (Epoch: 22 May)

Event Time Altitude Azimuth Distance (km) Brightness Sun altitude
Exits shadow 01:01:58 - 198° (SSW) 2,490 6.2 -10.9°
Reaches altitude 10° 01:02:29 10° 197° (SSW) 2,296 6.0 -10.8°
Maximum altitude 01:07:40 74° 114° (ESE) 805 4.2 -10.2°
Drops below altitude 10° 01:12:57 10° 30° (NNE) 2,331 7.6 -9.6°
Sets 01:15:21 0° 29° (NNE) 3,267 8.5 -9.3°
